Flag for Germany Weather past 2 weeks in Herten, North Rhine-Westphalia, Germany

Now
38 °F

Passing clouds.


Feels Like: 33 °F
Forecast: 36 / 46 °F
Wind: 6 mph from West

Location: Essen

Current Time: Mar 4, 2015 at 1:16:15 AM

Latest Report: Mar 4, 2015 at 12:00 AM


Visibility: 25 mi

Pressure: 30.09 "Hg

Humidity: 83%

Dew point: 33 °F

Location of HertenLocation

Historic Weather in Herten — Graph

°F

Herten temperature yesterday

Maximum temperature yesterday: 46 °F (at 2:00 PM)
Minimum temperature yesterday: 35 °F (at 4:00 AM)
Average temperature yesterday: 39 °F

Past Weeks' High & Low Weather Summary

 TemperatureHumidityPressure
High50 °F (Mar 1, 2:00 PM)100% (Feb 17, 7:00 AM)30.77 "Hg (Feb 17, 7:00 AM)
Low31 °F (Feb 28, 5:00 AM)50% (Feb 28, 5:00 PM)29.35 "Hg (Feb 21, 4:00 AM)
Average39 °F86%29.94 "Hg
* Reported Midnight between Feb 16 and Feb 17 — Midnight between Mar 3 and Mar 4, Herten, Weather by CustomWeather, © 2015

Note: Actual official high and low records may vary slightly from our data, if they occured in-between our weather recording intervals... More about our weather records

Advertising

Herten weather history for previous 24 hours

 ConditionsComfort  
Time TempWeatherWind HumidityBarometerVisibility
12:00 AM
Wed, Mar 4
38 °FPassing clouds.6 mph83%30.09 "Hg25 mi
11:00 PM
Tue, Mar 3
38 °FOvercast.3 mph89%30.07 "Hg28 mi
10:00 PM38 °FDrizzle. Overcast.3 mph93%30.06 "Hg18 mi
9:00 PM38 °FOvercast.3 mph94%30.03 "Hg15 mi
8:00 PM39 °FOvercast.5 mph96%30.03 "Hg18 mi
7:00 PM39 °FOvercast.5 mph93%30.01 "Hg34 mi
6:00 PM38 °FOvercast.5 mph95%29.98 "Hg43 mi
5:00 PM39 °FLight rain. Low clouds.7 mph95%29.99 "Hg5 mi
4:00 PM40 °FLight rain. Low clouds.8 mph93%29.98 "Hg11 mi
3:00 PM44 °FLight rain. Low clouds.9 mph68%29.97 "Hg12 mi
2:00 PM46 °FOvercast.10 mph55%29.97 "Hg31 mi
1:00 PM44 °FLow clouds.8 mph62%30.01 "Hg31 mi
12:00 PM43 °FOvercast.6 mph67%30.03 "Hg31 mi
11:00 AM42 °FOvercast.7 mph74%30.05 "Hg25 mi
10:00 AM40 °FOvercast.6 mph79%30.06 "Hg25 mi
9:00 AM38 °FOvercast.5 mph82%30.07 "Hg22 mi
8:00 AM36 °FScattered clouds.3 mph87%30.06 "Hg22 mi
7:00 AM36 °FClear.6 mph88%30.06 "Hg19 mi
6:00 AM36 °FOvercast.5 mph87%30.05 "Hg19 mi
5:00 AM36 °FOvercast.6 mph87%30.05 "Hg19 mi
4:00 AM35 °FPassing clouds.5 mph87%30.04 "Hg19 mi
3:00 AM36 °FClear.5 mph82%30.04 "Hg22 mi
2:00 AM36 °FPassing clouds.5 mph81%30.03 "Hg22 mi
1:00 AM37 °FClear.6 mph79%30.01 "Hg22 mi
Weather by CustomWeather, © 2015

See weather overviewHow to use our weather pages